Location: Goheenville
(40.9070°N, 79.3720°W)
Time: 03:45:01
(UTC-04:00)

Daily predictions for brighter satellites

Satellite Brightness Start Highest point End
(mag) Time Altitude Azimuth Time Altitude Azimuth Time Altitude Azimuth
Timation 2 Rocket 4.4 00:08:03 49° SE 00:08:50 51° ESE 00:15:23 10° NE
CZ-4B R/B 3.5 00:10:59 24° NE 00:10:59 24° NE 00:13:19 10° NNE
CENTAUR R/B 4.2 00:16:40 17° E 00:16:40 17° E 00:19:47 10° ENE
Cosmos 2026 Rocket 3.8 00:16:02 62° S 00:17:09 90° NNW 00:23:14 10° N
CZ-4C R/B 2.1 00:17:09 65° SW 00:18:01 87° NW 00:24:00 10° NE
Cosmos 2195 Rocket 4.5 00:16:53 55° SSW 00:18:19 78° W 00:24:36 10° N
Meteor 1-24 Rocket 3.7 00:20:08 67° SSE 00:20:56 81° E 00:26:51 10° NNE
NOSS 3-3 (A) 4.4 00:13:57 10° NW 00:21:27 85° NE 00:23:56 48° SE
NOSS 3-3 (C) 4.4 00:14:04 10° NW 00:21:33 85° NE 00:24:03 48° SE
Okean 3 Rocket 4.5 00:24:56 40° W 00:25:07 40° WNW 00:29:18 10° N
Cosmos 1733 4.5 00:22:44 10° NNW 00:25:34 36° WNW 00:25:34 36° WNW
Cosmos 2228 Rocket 3.7 00:24:15 10° N 00:27:58 47° NE 00:27:58 47° NE
ISS 0.0 00:27:03 10° NNW 00:28:36 13° N 00:30:11 10° NNE
NOSS 3-2 (C) 3.4 00:27:22 53° SW 00:29:01 86° NW 00:35:43 10° NE
Cosmos 841 Rocket 4.1 00:31:09 10° N 00:36:12 45° ENE 00:36:44 43° E
Cosmos 1867 3.4 00:40:09 80° ESE 00:40:09 80° ESE 00:45:34 10° NE
Cosmos 1408 Rocket 4.0 00:42:05 58° NW 00:42:05 58° NW 00:46:06 10° N
H-2A R/B 4.3 00:45:29 12° W 00:46:27 12° W 00:48:27 10° WNW
Cosmos 2344 3.6 00:46:20 53° SSE 00:47:57 63° ESE 00:56:23 10° NE
ALOS 2 2.9 00:48:44 63° N 00:48:44 63° N 00:52:28 10° NNW
Cosmos 2369 3.5 00:47:51 10° NNW 00:53:32 83° WSW 00:53:43 81° SSW
Genesis I 4.4 00:50:34 10° NNW 00:53:27 41° N 00:53:27 41° N
Cosmos 1151 Rocket 4.4 00:51:19 10° NNE 00:54:35 30° ENE 00:54:35 30° ENE
Meteor 1-21 Rocket 4.1 01:06:07 75° ESE 01:06:21 76° E 01:12:00 10° NNE
Cosmos 1553 Rocket 4.2 01:00:20 10° NNW 01:06:35 59° W 01:07:28 54° SW
Landsat 5 4.4 01:09:00 43° NNW 01:09:00 43° NNW 01:11:52 10° NNW
Cosmos 1980 Rocket 3.5 01:04:11 10° N 01:09:17 33° ENE 01:11:16 26° E
H-2A R/B 3.6 01:05:46 10° N 01:08:33 37° NW 01:08:33 37° NW
Cosmos 1743 Rocket 4.1 01:11:32 55° NW 01:11:32 55° NW 01:15:17 10° N
Cosmos 405 Rocket 4.4 01:14:20 28° NW 01:14:20 28° NW 01:16:48 10° N
Lacrosse 5 2.5 01:10:01 10° NW 01:14:58 52° NE 01:15:56 45° ENE
Cosmos 2278 4.2 01:09:41 10° NW 01:14:49 47° W 01:14:49 47° W
CZ-2C R/B 4.2 01:15:02 33° E 01:16:23 38° ENE 01:21:37 10° N
Cosmos 836 Rocket 4.4 01:15:22 10° NNW 01:20:30 83° NE 01:20:30 83° NE
Cosmos 1500 Rocket 4.2 01:28:14 50° NNW 01:28:14 50° NNW 01:31:42 10° N
Cosmos 1697 Rocket 2.6 01:22:54 10° NNW 01:28:36 76° ENE 01:29:07 70° ESE
Cosmos 2266 Rocket 4.1 01:29:49 59° SW 01:30:49 68° W 01:37:14 10° N
Cosmos 540 Rocket 4.0 01:26:10 10° N 01:31:14 51° ENE 01:31:46 49° E
Cosmos 2082 Rocket 2.3 01:31:09 60° W 01:31:46 65° WNW 01:37:25 10° NNE
Cosmos 1441 Rocket 4.3 01:34:49 44° N 01:34:49 44° N 01:37:35 10° N
Cosmos 2315 Rocket 3.9 01:27:21 10° N 01:33:42 83° E 01:34:36 67° SSE
Meteor 2-2 Rocket 4.1 01:28:13 10° NNW 01:33:57 76° W 01:34:16 74° SW
Cosmos 1833 Rocket 2.6 01:34:02 75° WSW 01:34:23 79° WNW 01:40:03 10° NNE
Cosmos 1763 Rocket 4.1 01:30:46 10° NNW 01:35:17 45° W 01:35:17 45° W
Cosmos 1726 4.3 01:37:19 10° NNE 01:39:43 21° ENE 01:39:43 21° ENE
Lacrosse 5 rocket 3.3 01:36:58 10° NNW 01:40:46 29° NE 01:43:29 16° E
CZ-4B R/B 4.2 01:44:45 15° WNW 01:44:45 15° WNW 01:45:47 10° NW
Cosmos 1437 Rocket 3.9 01:42:14 10° NNW 01:44:49 40° NNW 01:44:49 40° NNW
Cosmos 1656 3.8 01:41:57 10° NNW 01:47:20 58° W 01:47:20 58° W
Cosmos 1674 4.1 01:54:23 35° NNW 01:54:23 35° NNW 01:56:51 10° N
Cosmos 2058 3.4 02:01:55 57° NNE 02:01:55 57° NNE 02:05:19 10° N
CZ-2C R/B 2.8 01:55:43 10° N 02:01:11 62° WNW 02:01:42 59° W
Cosmos 332 Rocket 3.8 01:58:35 10° NNW 02:03:24 71° ENE 02:03:26 71° ENE
Cosmos 2360 4.5 01:58:52 10° NNW 02:04:33 64° ENE 02:06:04 47° ESE
CENTAUR R/B 2.5 02:03:49 55° WSW 02:05:15 75° NW 02:12:09 10° NNE
ISS -1.0 02:03:09 10° NW 02:05:55 25° NNE 02:05:58 25° NNE
SL-16 R/B 3.2 02:09:54 10° N 02:15:18 42° ENE 02:18:38 21° ESE
Cosmos 1805 Rocket 3.8 02:19:20 62° NW 02:19:20 62° NW 02:23:22 10° N
PSLV R/B 4.1 02:15:24 10° NNE 02:19:46 50° E 02:19:46 50° E
Cosmos 968 Rocket 3.4 02:19:49 68° SE 02:20:04 69° ESE 02:25:12 10° NNE
SL-08 R/B 4.3 02:19:50 62° S 02:20:59 89° W 02:27:09 10° N
ASTEX 1 3.3 02:18:11 10° N 02:23:08 72° W 02:23:17 71° W
Cosmos 2151 4.2 02:25:00 31° WNW 02:25:00 31° WNW 02:28:21 10° NNW
Cosmos 1633 Rocket 3.1 02:25:15 80° NNE 02:25:15 80° NNE 02:29:28 10° N
Cosmos 2322 Rocket 2.7 02:19:58 10° NNW 02:25:30 55° ENE 02:28:10 29° SE
Meteor 1-27 4.2 02:22:16 10° NNW 02:28:08 77° W 02:29:03 63° SSW
USA 32 4.5 02:24:48 10° NNW 02:29:47 45° W 02:29:55 45° W
Cosmos 1707 Rocket 4.1 02:29:34 10° NNW 02:33:09 46° WNW 02:33:09 46° WNW
SL-14 R/B 3.8 02:35:29 53° NNW 02:35:29 53° NNW 02:38:37 10° N
Cosmos 2242 Rocket 3.5 02:30:47 10° N 02:35:03 83° NNW 02:35:03 83° NNW
Cosmos 1666 Rocket 3.9 02:36:49 55° WNW 02:36:49 55° WNW 02:40:47 10° N
Meteor 1-4 Rocket 3.2 02:40:42 10° N 02:44:25 53° ENE 02:44:25 53° ENE
Meteor 2-10 4.2 02:39:09 10° N 02:44:26 70° E 02:46:09 44° SSE
Cosmos 1703 3.3 02:46:24 76° N 02:46:24 76° N 02:50:04 10° N
JB-3 4.4 02:42:07 10° NNE 02:45:55 71° ENE 02:45:55 71° ENE
Cosmos 1271 Rocket 3.1 02:42:28 10° N 02:46:09 55° ENE 02:46:09 55° ENE
Cosmos 1470 Rocket 3.5 02:47:03 70° SE 02:47:21 73° E 02:51:46 10° NNE
Cosmos 1933 Rocket 3.4 02:51:18 73° SE 02:51:37 78° E 02:56:03 10° N
ERS-2 2.5 02:48:14 10° NNE 02:51:42 57° E 02:51:42 57° E
NPP 4.0 02:47:08 10° NNE 02:52:28 58° E 02:54:03 42° SSE
Cosmos 1980 Rocket 2.9 02:48:10 10° NW 02:52:59 35° W 02:52:59 35° W
Cosmos 371 Rocket 3.4 02:48:36 10° NNW 02:53:20 57° WSW 02:53:20 57° WSW
Cosmos 2360 Rocket 3.7 02:48:56 10° N 02:54:04 35° ENE 02:59:09 10° ESE
Cosmos 1538 Rocket 4.1 02:50:54 10° NNW 02:56:01 56° WSW 02:56:27 54° SW
CZ-2C R/B 4.2 02:56:05 30° W 02:56:14 30° W 03:01:14 10° NNW
Lacrosse 5 3.7 02:53:27 10° WNW 02:55:03 18° W 02:55:03 18° W
Cosmos 923 Rocket 4.1 02:54:30 10° NNW 02:59:47 72° ENE 03:02:13 32° SSE
Sich 1 4.0 03:01:20 35° W 03:01:24 35° WNW 03:05:30 10° N
Cosmos 1777 Rocket 4.0 03:05:22 52° SW 03:06:39 74° WNW 03:11:57 10° NNE
Cosmos 773 Rocket 3.8 03:01:50 10° NNW 03:06:59 80° WSW 03:08:29 47° S
Cosmos 1680 Rocket 3.8 03:02:36 10° NNW 03:07:48 64° ENE 03:11:08 22° SE
BREEZE-M TANK 3.1 03:01:49 10° W 03:08:38 54° NNW 03:11:19 10° ENE
IRAS Rocket 4.2 03:04:33 10° N 03:10:02 72° WNW 03:11:43 45° SW
IRS-1C 4.4 03:09:02 10° NNE 03:14:21 62° E 03:16:33 35° SSE
Cosmos 1726 4.1 03:12:39 10° NW 03:14:24 19° WNW 03:14:24 19° WNW
Cosmos 2322 4.5 03:11:10 10° NNW 03:16:47 51° ENE 03:22:20 10° SE
Lacrosse 5 rocket 2.2 03:15:59 10° NW 03:19:06 38° W 03:19:06 38° W
ATLAS 5 CENTAUR R/B 1.8 03:18:55 49° SSW 03:20:16 84° ESE 03:25:31 10° NE
Resurs 1-4 Rocket 3.9 03:16:06 10° NE 03:20:27 25° E 03:24:36 11° SSE
CBERS-1 3.9 03:15:26 10° NNE 03:20:35 87° ESE 03:22:25 41° S
USA 161 3.1 03:23:27 28° ENE 03:23:27 28° ENE 03:25:16 10° N
USA 215 3.2 03:17:05 10° NE 03:23:39 77° SE 03:26:49 33° SW
Cosmos 1933 3.9 03:21:51 10° N 03:25:48 54° E 03:27:41 28° SE
ARIANE 5 R/B 3.5 03:22:29 10° NNE 03:27:14 39° E 03:30:18 19° SSE
Cosmos 1862 Rocket 3.8 03:23:08 10° NNW 03:27:30 52° W 03:28:09 47° SW
AQUA 3.7 03:22:43 10° N 03:27:30 79° WNW 03:29:01 43° SSW
IRS-P3 4.4 03:23:26 10° N 03:28:40 56° WNW 03:30:34 37° SW
Cosmos 1455 2.4 03:26:02 10° NNW 03:29:42 50° W 03:29:42 50° W
Cosmos 1709 Rocket 4.1 03:30:36 34° SSW 03:33:23 63° W 03:39:35 10° N
SL-16 R/B 3.4 03:29:11 10° SE 03:35:10 50° ENE 03:41:12 10° N
SAR-Lupe-3 4.4 03:35:08 60° SSW 03:35:40 76° WSW 03:39:15 10° NNW
ATLAS CENTAUR R/B 3.1 03:31:43 10° NNW 03:36:07 38° NE 03:40:12 10° ESE
Cosmos 1898 Rocket 4.4 03:33:26 22° SSE 03:36:22 42° ESE 03:41:14 10° NNE
Cosmos 1626 2.7 03:37:27 40° W 03:37:45 40° WNW 03:41:20 10° N
Okean O Rocket 4.2 03:36:18 10° ENE 03:38:36 14° E 03:40:52 10° ESE
Cosmos 1833 4.2 03:45:38 31° SSW 03:48:31 76° WNW 03:54:16 10° NNE
COSMOS 2428 3.7 03:44:37 10° NNW 03:50:06 48° ENE 03:55:34 10° SE
ADEOS 3.6 03:45:25 10° N 03:50:38 71° WNW 03:53:19 29° SSW
GENESIS II 4.2 03:48:39 10° NW 03:52:43 62° WSW 03:55:24 20° SSE
Cosmos 1869 Rocket 3.5 03:50:55 31° S 03:53:01 89° W 03:57:30 10° N
H-2A ROCKET BODY 3.4 03:57:35 14° SSE 03:57:35 14° SSE 03:58:11 10° SSE
SL-16 R/B 3.1 03:54:28 10° NW 03:59:09 27° WSW 04:00:26 25° SW
Cosmos 2221 Rocket 3.6 03:54:51 10° NNW 03:59:20 65° W 04:01:55 24° S
Cosmos 2150 Rocket 4.1 03:56:40 23° S 03:59:59 75° ESE 04:05:23 10° NNE
Cosmos 2112 Rocket 4.3 03:58:17 10° NNW 04:03:13 46° WSW 04:06:18 22° SSW
SL-08 R/B 4.3 04:03:11 25° WSW 04:04:26 29° W 04:08:41 10° NW
Cosmos 2292 Rocket 4.2 04:06:06 24° W 04:06:44 26° WNW 04:09:58 10° NNW
Cosmos 2322 Rocket 3.5 04:05:03 10° NW 04:09:03 20° W 04:09:55 20° WSW
Cosmos 2237 4.4 04:06:47 10° NNW 04:12:32 75° ENE 04:18:16 10° SSE
Cosmos 2219 Rocket 3.8 04:09:28 10° N 04:14:39 37° ENE 04:19:48 10° SE
USA 129 3.2 04:16:19 23° NNE 04:16:19 23° NNE 04:17:05 10° N
UNKNOWN OBJECT B 3.3 04:12:15 10° NNE 04:16:03 55° E 04:19:23 13° S
CZ-2D R/B 2.1 04:12:45 10° NNE 04:18:03 83° ESE 04:22:42 14° SSW
Cosmos 1703 Rocket 4.4 04:19:06 10° NNW 04:22:59 32° W 04:25:07 21° SW
Cosmos 1733 Rocket 3.8 04:18:59 10° SSE 04:23:11 50° E 04:27:25 10° NNE
Meteor 2-3 Rocket 3.8 04:22:26 12° S 04:27:46 87° WNW 04:33:36 10° N
Meteor 2-10 Rocket 4.2 04:24:27 10° N 04:29:28 56° ENE 04:34:36 10° SSE
USA 229 DEB 3.8 04:24:10 18° SW 04:29:35 73° NW 04:36:36 10° NNE
USA 229 3.8 04:24:15 18° SW 04:29:41 74° NW 04:36:42 10° NNE
GPS 2-05 Rocket1 3.8 04:32:49 22° SW 04:33:57 27° S 04:36:51 10° SE
Coronas F rocket 3.7 04:32:17 10° SE 04:34:30 22° E 04:36:44 10° NE
Cosmos 2360 Rocket 2.9 04:32:59 10° NW 04:37:59 34° WSW 04:42:59 10° SSW
Okean 1-7 3.7 04:34:11 10° NNW 04:38:11 36° W 04:41:34 13° SSW
OAO 3 Rocket 4.2 04:35:55 16° WSW 04:38:29 25° SSW 04:42:18 10° SE
Cosmos 990 Rocket 4.1 04:33:59 11° SSW 04:38:55 80° ESE 04:44:06 10° NNE
Cosmos 2341 Rocket 4.3 04:33:31 10° S 04:39:47 74° E 04:46:09 10° N
EO 1 Del DPAF 4.1 04:37:14 16° SSW 04:39:50 31° W 04:43:22 10° NNW
Cosmos 2227 Rocket 3.3 04:37:31 10° S 04:42:47 42° ESE 04:48:06 10° NE
In-Cosmos 22 Rocket 4.3 04:38:31 13° SSW 04:43:16 58° WNW 04:48:38 10° N
Nadezhda 3 Rocket 4.0 04:40:33 10° N 04:46:42 82° W 04:52:51 10° S
NOSS 3-1 (A) 4.4 04:44:35 10° S 04:50:05 43° ESE 04:56:05 10° NE
Sich 1 Rocket 4.0 04:47:11 10° S 04:51:31 63° E 04:55:52 10° NNE
Cosmos 2154 Rocket 4.1 04:45:40 10° SSW 04:51:58 72° W 04:58:21 10° N
CZ-4B R/B 3.6 04:46:31 10° NNE 04:52:00 67° ESE 04:57:32 10° S
CZ-2C R/B 3.6 04:48:45 10° S 04:53:14 79° WSW 04:57:51 10° NNW
PSLV R/B 3.9 04:50:54 10° NNE 04:54:54 90° ESE 04:58:57 10° SSW
Cosmos 2333 4.2 04:51:54 10° NNW 04:57:30 64° WSW 05:03:06 10° S
DELTA 2 R/B (1) 4.4 04:53:15 11° SW 04:58:07 38° SSE 05:03:15 10° E
Meteor 1-10 Rocket 4.3 04:52:21 10° N 04:58:07 89° WSW 05:03:57 10° S
Cosmos 292 Rocket 4.0 04:54:38 10° NNW 04:59:14 47° WSW 05:03:48 10° S
Cosmos 2219 4.0 04:54:15 11° SW 04:59:17 38° WNW 05:04:38 10° N
Resurs 1-4 Rocket 2.8 04:55:27 10° N 05:00:24 40° WNW 05:05:21 10° SW
Cosmos 1908 Rocket 4.2 04:56:19 10° S 05:00:39 59° E 05:04:59 10° NNE
Cosmos 1606 4.0 04:58:48 10° N 05:02:27 43° E 05:06:04 10° SSE
AVUM R/B 2.8 05:03:23 12° SW 05:05:07 40° WNW 05:07:10 10° NNE
ATLAS 5 CENTAUR R/B 3.9 05:02:12 10° W 05:05:43 18° NW 05:09:24 10° N
ARIANE 5 R/B 3.8 05:02:04 10° NNW 05:06:08 25° WNW 05:10:09 10° WSW
USA 215 4.3 05:00:23 10° NE 05:06:18 38° NNW 05:12:13 10° W
Cosmos 1674 Rocket 3.5 05:02:08 10° NNW 05:06:26 70° W 05:10:43 10° S
Iridium 4 Rocket 3.6 05:04:08 10° N 05:08:20 61° E 05:12:26 10° SSE
Cosmos 1408 4.4 05:05:33 10° SSE 05:08:53 33° E 05:12:14 10° NNE
Cosmos 1782 2.8 05:05:10 10° N 05:09:12 79° W 05:13:09 10° S
BREEZE-M DEB (TANK) 1.1 05:07:04 10° WNW 05:09:38 68° SW 05:11:58 10° SE
ATLAS CENTAUR R/B 2.6 05:11:21 10° WNW 05:14:59 23° WSW 05:18:23 10° SSW
Okean O Rocket 1.9 05:10:59 10° N 05:15:18 52° WNW 05:19:33 10° SSW
Cosmos 2297 Rocket 2.9 05:09:54 10° S 05:15:24 55° ESE 05:20:56 10° NNE
CZ-4B R/B 3.0 05:13:28 10° N 05:17:35 83° WNW 05:21:54 10° SSW
Thor Agena Rocket 3.7 05:12:40 10° S 05:17:54 60° WSW 05:23:08 10° NNW
SL-16 R/B 3.5 05:13:53 10° SSW 05:19:00 26° W 05:24:11 10° NW
CZ-4B DEB 4.3 05:15:11 10° N 05:20:42 78° WNW 05:26:13 10° SSW
